Regional Weather Roundup
Issued by NWS Columbia, SC

Home | Current Version | Previous Version | Text Only | Print | Product List | Glossary On
Versions: 1 2 3 4 5 6 7 8 9 10 11 12 13 14 15 16 17 18 19 20 21 22 23 24 25 26 27 28 29 30 31 32 33 34 35 36 37 38 39 40 41 42 43 44 45 46 47 48 49 50
000
ASUS42 KCAE 220110
RWRCAE
REGIONAL WEATHER ROUNDUP
NATIONAL WEATHER SERVICE COLUMBIA SC
900 PM EDT MON AUG 21 2017

NOTE: "FAIR" INDICATES FEW OR NO CLOUDS BELOW 12,000 FEET WITH NO
SIGNIFICANT WEATHER AND/OR OBSTRUCTIONS TO VISIBILITY.

NOT ALL STATIONS ARE QUALITY CONTROLLED BY THE NATIONAL
WEATHER SERVICE. USE DATA WITH CAUTION...ESPECIALLY
DEWPOINT OBSERVATIONS.

SCZ001>056-GAZ040-063>065-077-220200-
...UPSTATE SOUTH CAROLINA...

CITY           SKY/WX    TMP DP  RH WIND       PRES   REMARKS
ANDERSON       CLEAR     81  70  69 CALM      30.15R
LIBERTY        CLOUDY    78  75  90 NW3       30.16F
SPARTANBURG    PTCLDY    79  72  78 CALM      30.16R
CLEMSON        CLOUDY    82  71  69 W7        30.17R
GREENVILLE     PTCLDY    86  69  56 S3        30.17S
GREENWOOD      PTCLDY    82  72  71 S9        30.16R
GREER          PTCLDY    81  70  69 CALM      30.15S
ROCK HILL      CLEAR     78  71  79 CALM      30.17R
CHESTER        CLEAR     79  68  69 CALM      30.17R
LAURENS        CLEAR     82  68  61 S3        30.15R


...CENTRAL SOUTH CAROLINA...

CITY           SKY/WX    TMP DP  RH WIND       PRES   REMARKS
COLUMBIA APT   PTCLDY    82  72  71 S6        30.15R
COLUMBIA OWENS CLOUDY    82  73  74 S3        30.16R
MCENTIRE ANGB  PTCLDY    77  73  87 SE3       30.16R
ORANGEBURG     MOCLDY    77  72  84 CALM      30.16S
SUMTER SHAW    PTCLDY    80  72  77 S5        30.13S
NEWBERRY       CLOUDY    82  72  69 S7        30.18R
AIKEN          FAIR      75  72  88 S5        30.20R
BARNWELL       FAIR      79  75  89 CALM      30.16R
MANNING        FAIR      77  72  83 CALM      30.15S
CAMDEN         FAIR      81  75  83 CALM      30.16R
LANCASTER      CLEAR     82  72  69 SE6       30.16R
WINNSBORO      CLOUDY    81  73  78 SE5       30.17R


...EASTERN AND COASTAL SOUTH CAROLINA...

CITY           SKY/WX    TMP DP  RH WIND       PRES   REMARKS
MYRTLE BEACH   PTCLDY    82  77  83 SE8       30.16R
N MYRTLE BCH   PTCLDY    82  75  79 S6        30.15S
CONWAY         FAIR      77  75  94 CALM      30.16R
MARION         FAIR      79  73  83 S5        30.15S
HARTSVILLE     FAIR      79  73  83 S3        30.16R
FLORENCE       MOCLDY    80  76  87 S5        30.16R
DARLINGTON     CLOUDY    81  75  82 S5        30.16R
CHARLESTON APT MOCLDY    76  76 100 CALM      30.13F
MOUNT PLEASANT FAIR      79  79 100 CALM      30.14S FOG
WALTERBORO     CLOUDY    73  73 100 CALM      30.15S
BEAUFORT       CLOUDY    78  78 100 CALM      30.13F


...EASTERN GEORGIA...

CITY           SKY/WX    TMP DP  RH WIND       PRES   REMARKS
AUGUSTA BUSH F MOCLDY    79  75  87 E5        30.14S
AUGUSTA DANIEL PTCLDY    82  72  71 SE6       30.16S
THOMSON        CLEAR     79  73  82 SW3       30.21R
CLAXTON        FAIR      78  77  96 CALM      30.14S
SYLVANIA       CLEAR     76  75  98 CALM      30.16S
STATESBORO     PTCLDY    79  73  82 CALM      30.14R
SAVANNAH       CLOUDY    77  74  90 N3        30.15R


...SOUTHERN NORTH CAROLINA...

CITY           SKY/WX    TMP DP  RH WIND       PRES   REMARKS
CHARLOTTE      PTCLDY    83  70  64 S6        30.17R
MONROE         CLEAR     77  69  76 CALM      30.16R
WADESBORO      CLEAR     78  68  71 SE5       30.15R
ROCKINGHAM     CLEAR     83  73  72 S8        30.15S
RUTHERFORDTON  CLEAR     80  74  81 CALM      30.19R
ASHEVILLE      PTCLDY    77  69  76 CALM      30.25R

$$



USA.gov is the U.S. government's official web portal to all federal, state and local government web resources and services.